[[{"header":{"parameterUnit":"m.s-1","parameterCategory":1,"la1":30.2991,"la2":30.254,"lo1":-89.0895,"lo2":-89.0444,"dy":0.0017,"dx":0.0017,"nx":28,"ny":28,"refTime":"2023-09-10T03:00:00:Z","depth":0,"parameterNumber":2,"parameterNumberName":"U-component_of_WINDS"},"data":[0,0,0,0,0,0,0,0,0,0,0,0,0,0,0,0,0,0,0,0,0,0,0,0,0,0,0,0,0,0,0,0,0,0,0,0,0,0,0,0,0,0,0,0,0,0,0,0,0,0,0,0,0,0,0,0,0,0,0.4524,0.4525,0,0.4666,0.4668,0.4669,0.469,0.4689,0.4688,0.4687,0.4838,0.4843,0.4848,0,0,0,0,0,0,0,0,0,0,0,0,0,0.4274,0.4278,0.4523,0.4525,0.4527,0.4666,0.4668,0.467,0.4691,0.4689,0.4687,0.4686,0.4836,0.4842,0.4848,0,0,0,0,0,0,0,0,0,0,0,0,0,0.4396,0.428,0.4523,0.4554,0.4558,0.4665,0.4668,0.467,0.4691,0.4689,0.4687,0.4685,0.4834,0.4842,0.4849,0.4937,0,0,0.4873,0.4877,0,0,0,0,0,0,0,0,0.4389,0.4405,0.4548,0.4552,0.4557,0.4658,0.4635,0.476,0.4692,0.4641,0.4687,0.4684,0.478,0.4792,0.4823,0.4944,0.4951,0.4874,0.4879,0.4882,0.4884,0,0,0,0,0,0,0,0.438,0.4399,0.458,0.455,0.4555,0.4562,0.4577,0.4659,0.472,0.4645,0.4647,0.4663,0.4782,0.4816,0.4827,0.4953,0.4874,0.4881,0.4886,0.4889,0.5153,0.5155,0,0,0,0,0,0,0.4366,0.4392,0.4575,0.4584,0.4466,0.4568,0.4585,0.4628,0.4719,0.4731,0.4665,0.4664,0.4803,0.4818,0.4832,0.4941,0.4882,0.489,0.4894,0.5151,0.5154,0.5156,0,0,0,0,0,0,0.436,0.4382,0.457,0.4489,0.4513,0.4575,0.4622,0.4632,0.4665,0.4734,0.4745,0.4687,0.4802,0.4821,0.4911,0.4947,0.4893,0.49,0.5148,0.5152,0.5155,0.5159,0,0,0,0,0,0,0.4353,0.438,0.4413,0.4489,0.4517,0.4644,0.4625,0.4636,0.4678,0.4678,0.4758,0.477,0.4802,0.4899,0.4918,0.4956,0.4906,0.5145,0.515,0.5154,0.5156,0.5162,0.5167,0,0,0,0,0,0.4344,0.4409,0.4414,0.4436,0.4559,0.4646,0.4662,0.4697,0.4681,0.4715,0.4759,0.4767,0.4939,0.4908,0.493,0.4971,0.5143,0.5149,0.5154,0.5153,0.5161,0.5167,0,0,0,0,0,0,0.4337,0.442,0.4426,0.4518,0.4574,0.4649,0.4694,0.4704,0.4768,0.4765,0.4807,0.4825,0.4912,0.4951,0.4914,0.5061,0.504,0.505,0.5032,0.504,0.5046,0.5034,0.4913,0,0,0,0,0,0.4346,0.4408,0.4477,0.4552,0.458,0.4632,0.4671,0.4692,0.4754,0.4778,0.4829,0.4889,0.4957,0.5001,0.5067,0.5162,0.518,0.5201,0.5207,0.5211,0.5219,0.5272,0.5282,0.5173,0.5173,0.5173,0,0,0.4365,0.4418,0.4455,0.4552,0.4598,0.4662,0.4652,0.4721,0.4769,0.4789,0.4876,0.4915,0.4985,0.5077,0.5121,0.5112,0.5253,0.5218,0.5221,0.5226,0.5278,0.5288,0.5298,0.5177,0.5176,0.5176,0,0,0.4433,0.4479,0.4546,0.4593,0.4662,0.4697,0.4713,0.4786,0.4812,0.49,0.4916,0.4975,0.5091,0.514,0.518,0.5267,0.5277,0.5288,0.5318,0.5369,0.5377,0.5385,0.5416,0.5426,0.5296,0.5296,0.5296,0,0.4449,0.4545,0.4579,0.4647,0.4689,0.4709,0.4777,0.4821,0.491,0.4939,0.4928,0.5074,0.5123,0.5226,0.5247,0.5279,0.5299,0.5278,0.5373,0.5381,0.5389,0.5419,0.543,0.5296,0.5296,0.5296,0.5296,0,0.4561,0.4628,0.4673,0.4756,0.4804,0.4872,0.4917,0.4962,0.498,0.5015,0.5104,0.5163,0.5241,0.5268,0.5287,0.5375,0.5367,0.5364,0.5344,0.5399,0.5428,0.544,0.5298,0.5297,0.5297,0.5297,0,0,0.4628,0.4729,0.4745,0.4783,0.4862,0.4915,0.4984,0.5059,0.5096,0.5157,0.5216,0.5313,0.5311,0.5356,0.5381,0.5426,0.549,0.5418,0.542,0.5428,0.559,0.5591,0.5604,0.5497,0.5499,0.5501,0.5584,0,0.4705,0.4827,0.486,0.4964,0.5026,0.5046,0.5106,0.5162,0.5197,0.5256,0.5296,0.5364,0.5356,0.5383,0.5428,0.5472,0.5523,0.5467,0.5554,0.5556,0.5534,0.5619,0.5621,0.5696,0.5596,0.5598,0.5599,0,0.4811,0.4872,0.4981,0.5051,0.5079,0.5132,0.5203,0.5259,0.5323,0.5346,0.5396,0.5417,0.5491,0.5467,0.557,0.5531,0.5569,0.5596,0.56,0.5609,0.558,0.563,0.5721,0.5732,0.5617,0.5616,0.5614,0,0.4848,0.4958,0.5038,0.507,0.5154,0.5191,0.5228,0.5289,0.5332,0.5395,0.5423,0.5495,0.5534,0.5589,0.5629,0.5608,0.5728,0.5708,0.575,0.5749,0.5774,0.5772,0.5872,0.5799,0.5799,0.5799,0.5798,0,0.493,0.4997,0.5055,0.5104,0.5179,0.5217,0.5291,0.5329,0.5384,0.5441,0.5464,0.5517,0.5566,0.5627,0.5659,0.5739,0.5757,0.5778,0.5786,0.5776,0.5773,0.58,0.5796,0.5802,0.5801,0.58,0.58,0,0.4984,0.5027,0.5114,0.5186,0.5206,0.5258,0.5321,0.537,0.5406,0.5478,0.5497,0.5555,0.5627,0.5672,0.5765,0.5786,0.5874,0.588,0.5852,0.5855,0.5894,0.589,0.6015,0.6034,0.5949,0.595,0.595,0,0.5033,0.5085,0.5162,0.5201,0.5238,0.5301,0.5345,0.5385,0.5429,0.5505,0.5545,0.5619,0.568,0.5795,0.5846,0.5917,0.5925,0.5964,0.5936,0.5924,0.5925,0.592,0.5926,0.5968,0.5969,0.5969,0.597,0,0.5116,0.5134,0.5195,0.5263,0.5314,0.537,0.5426,0.5458,0.5507,0.5556,0.563,0.5677,0.5771,0.5844,0.5919,0.5959,0.5973,0.5978,0.5992,0.5982,0.5963,0.5973,0.5864,0.5975,0.5975,0.5974,0.5974,0.5974,0.5169,0.5215,0.5276,0.5343,0.5389,0.5441,0.549,0.5532,0.5593,0.5672,0.5692,0.5769,0.5832,0.5935,0.5976,0.6038,0.6032,0.6052,0.6057,0.606,0.6061,0.5953,0.6052,0.6052,0.6052,0.6052,0.6052,0,0.5252,0.5292,0.5353,0.543,0.5483,0.549,0.5553,0.5597,0.5664,0.5721,0.578,0.5865,0.5936,0.5992,0.6065,0.6103,0.6112,0.6121,0.6118,0.6127,0.6062,0.6043,0.6113,0.6113,0.6113,0.6113,0.6113,0.6113,0.5301,0.5379,0.5405,0.5506,0.5547,0.5621,0.5656,0.5704,0.575,0.5843,0.5901,0.5936,0.5993,0.6071,0.6136,0.6151,0.6177,0.6185,0.6201,0.6139,0.6132,0.6125,0.6108,0.6191,0.6191,0.6261,0.6262,0.6262]},{"header":{"parameterUnit":"m.s-1","parameterCategory":1,"la1":30.2991,"la2":30.254,"lo1":-89.0895,"lo2":-89.0444,"dy":0.0017,"dx":0.0017,"nx":28,"ny":28,"refTime":"2023-09-10T03:00:00:Z","depth":0,"parameterNumber":3,"parameterNumberName":"V-component_of_WINDS"},"data":[0,0,0,0,0,0,0,0,0,0,0,0,0,0,0,0,0,0,0,0,0,0,0,0,0,0,0,0,0,0,0,0,0,0,0,0,0,0,0,0,0,0,0,0,0,0,0,0,0,0,0,0,0,0,0,0,0,0,1.3859,1.386,0,1.3935,1.3936,1.3937,1.389,1.3887,1.3885,1.3883,1.3962,1.3966,1.397,0,0,0,0,0,0,0,0,0,0,0,0,0,1.3669,1.3673,1.3859,1.386,1.3861,1.3935,1.3936,1.3937,1.389,1.3887,1.3885,1.3882,1.396,1.3965,1.397,0,0,0,0,0,0,0,0,0,0,0,0,0,1.3749,1.3674,1.3858,1.3846,1.3846,1.3935,1.3936,1.3937,1.3891,1.3887,1.3884,1.3881,1.3959,1.3965,1.3971,1.4077,0,0,1.399,1.3993,0,0,0,0,0,0,0,0,1.3745,1.3756,1.3847,1.3847,1.3847,1.3899,1.3898,1.3984,1.3891,1.3874,1.3883,1.3879,1.3944,1.3951,1.3973,1.408,1.4084,1.3991,1.3994,1.3997,1.3999,0,0,0,0,0,0,0,1.3739,1.3752,1.3889,1.3848,1.3848,1.3836,1.3843,1.3914,1.3927,1.3875,1.3872,1.3881,1.3943,1.3967,1.3974,1.4085,1.399,1.3996,1.4,1.4002,1.4277,1.428,0,0,0,0,0,0,1.3735,1.3748,1.3886,1.3891,1.3786,1.3842,1.385,1.3886,1.3926,1.3928,1.3884,1.3879,1.3958,1.3967,1.3977,1.4098,1.3997,1.4003,1.4006,1.4273,1.4278,1.4281,0,0,0,0,0,0,1.3731,1.3747,1.3883,1.3819,1.3835,1.3849,1.3889,1.3889,1.3913,1.3933,1.3934,1.3906,1.3955,1.3968,1.4051,1.4101,1.4006,1.4011,1.4269,1.4275,1.4279,1.4346,0,0,0,0,0,0,1.3726,1.3746,1.3788,1.382,1.3839,1.3957,1.3892,1.3893,1.3924,1.3918,1.3954,1.3957,1.3954,1.4042,1.4057,1.4108,1.4016,1.4265,1.4271,1.4278,1.4339,1.4353,1.4365,0,0,0,0,0,1.3719,1.3805,1.379,1.3807,1.3891,1.396,1.3971,1.3966,1.3928,1.3968,1.398,1.3955,1.4093,1.4051,1.4067,1.4121,1.4261,1.427,1.4277,1.4334,1.435,1.4364,0,0,0,0,0,0,1.3779,1.3809,1.3793,1.3892,1.3924,1.3952,1.4004,1.3985,1.4028,1.402,1.4012,1.4021,1.4106,1.4122,1.4074,1.4222,1.4171,1.4183,1.4208,1.4224,1.4237,1.423,1.4021,0,0,0,0,0,1.3804,1.3858,1.3881,1.3967,1.3983,1.3991,1.4021,1.4014,1.4047,1.406,1.4078,1.411,1.416,1.4194,1.4241,1.4342,1.4347,1.4387,1.4399,1.4409,1.4419,1.4468,1.4484,1.4307,1.4307,1.4307,0,0,1.3856,1.3879,1.3914,1.3979,1.4003,1.4057,1.4002,1.4064,1.4104,1.4069,1.4147,1.4162,1.4197,1.4287,1.4329,1.4303,1.4469,1.442,1.4428,1.4431,1.4478,1.4494,1.4509,1.4313,1.4312,1.4311,0,0,1.3977,1.4002,1.4073,1.4097,1.4133,1.4137,1.4154,1.4184,1.4192,1.427,1.4243,1.429,1.4378,1.4403,1.4427,1.4553,1.453,1.4569,1.4634,1.4682,1.4695,1.4708,1.4748,1.4763,1.4579,1.4579,1.4579,0,1.4037,1.4119,1.4112,1.4174,1.4201,1.4171,1.4241,1.4265,1.4315,1.4334,1.4306,1.4411,1.4434,1.4527,1.4557,1.4579,1.4596,1.4564,1.4694,1.4706,1.4718,1.4756,1.4772,1.4583,1.4583,1.4582,1.4582,0,1.4188,1.4245,1.4298,1.4344,1.4378,1.4445,1.4445,1.448,1.447,1.4476,1.4553,1.4578,1.4627,1.465,1.4642,1.4741,1.4723,1.4695,1.4643,1.4739,1.4774,1.479,1.4589,1.4588,1.4586,1.4585,0,0,1.4351,1.4389,1.4409,1.4427,1.4463,1.4506,1.4569,1.4617,1.4644,1.468,1.473,1.4803,1.4775,1.4802,1.4796,1.4839,1.493,1.4804,1.4805,1.4823,1.5036,1.5055,1.5072,1.4916,1.4919,1.4922,1.5032,0,1.447,1.458,1.4573,1.4675,1.4725,1.4695,1.475,1.4776,1.4783,1.4826,1.4833,1.4883,1.4845,1.486,1.4902,1.4911,1.4973,1.4903,1.496,1.4962,1.4949,1.5092,1.5113,1.5215,1.5046,1.5049,1.505,0,1.4625,1.4662,1.4769,1.4792,1.4813,1.4862,1.4902,1.4944,1.4973,1.4974,1.5003,1.4988,1.5049,1.4997,1.5079,1.5031,1.5054,1.5062,1.5066,1.5068,1.501,1.5094,1.5249,1.5263,1.5073,1.5071,1.507,0,1.4727,1.4805,1.4876,1.4894,1.4925,1.4959,1.4973,1.4998,1.5025,1.5061,1.5078,1.5121,1.5143,1.5176,1.5172,1.5135,1.5253,1.5202,1.5253,1.5253,1.5278,1.5276,1.5434,1.5299,1.5299,1.5298,1.5298,0,1.486,1.4925,1.4922,1.4966,1.5037,1.5028,1.5098,1.5109,1.513,1.5174,1.5153,1.5194,1.5188,1.523,1.5227,1.5292,1.5304,1.5305,1.5303,1.5305,1.5304,1.5318,1.5309,1.5302,1.5302,1.5301,1.53,0,1.4985,1.4986,1.5061,1.5083,1.509,1.5141,1.5158,1.5199,1.5203,1.5258,1.5271,1.5277,1.5324,1.5324,1.5378,1.5376,1.5455,1.5447,1.5445,1.5442,1.5491,1.5485,1.5661,1.5682,1.5537,1.5538,1.5539,0,1.5067,1.5116,1.5142,1.5169,1.5185,1.523,1.5256,1.5249,1.5278,1.5311,1.5347,1.5391,1.5426,1.5502,1.5511,1.5551,1.5541,1.56,1.5547,1.5546,1.5536,1.5532,1.5535,1.5609,1.5611,1.5612,1.5613,0,1.5212,1.5209,1.5249,1.5287,1.5319,1.5349,1.5377,1.5401,1.5396,1.5429,1.5475,1.5503,1.5556,1.5599,1.5637,1.565,1.563,1.563,1.5643,1.5644,1.5639,1.5638,1.5469,1.5626,1.5624,1.5623,1.5623,1.5622,1.5316,1.5356,1.5378,1.5422,1.5441,1.5467,1.5504,1.5511,1.555,1.5592,1.5586,1.5637,1.566,1.5708,1.5725,1.5763,1.5743,1.5763,1.5767,1.5772,1.5775,1.5635,1.5771,1.5771,1.577,1.577,1.577,0,1.5456,1.5468,1.5508,1.5546,1.5579,1.5557,1.5585,1.5614,1.5659,1.5682,1.5716,1.5767,1.5808,1.5819,1.5858,1.5886,1.5877,1.5896,1.5892,1.5895,1.5794,1.5776,1.5902,1.5902,1.5902,1.5902,1.5902,1.5902,1.5532,1.5597,1.5596,1.5669,1.5681,1.573,1.5747,1.5769,1.5787,1.5845,1.5878,1.5885,1.5902,1.5941,1.5976,1.5978,1.5992,1.6013,1.6011,1.5916,1.5902,1.589,1.5873,1.6017,1.6018,1.6108,1.6109,1.611]}]]